Location: Berkeley
(37.8716°N, 122.2727°W)
Time: 06:14:22
(UTC+00:00)

Daily predictions for brighter satellites

Satellite Brightness Start Highest point End
(mag) Time Altitude Azimuth Time Altitude Azimuth Time Altitude Azimuth
Cosmos 1943 Rocket 3.5 12:09:39 30° SSE 12:09:39 30° SSE 12:12:18 10° SSE
Cosmos 2016 Rocket 4.3 12:10:08 10° N 12:16:29 66° E 12:22:42 10° SSE
Iridium 4 Rocket 4.4 12:27:17 32° SE 12:27:17 32° SE 12:29:47 10° SSE
USA 267 3.1 12:21:20 10° NE 12:27:49 67° NW 12:28:16 66° WNW
Meteor 2-16 Rocket 4.4 12:31:40 66° NW 12:31:40 66° NW 12:37:07 10° N
ATLAS 3B R/B 3.4 12:29:27 10° SSW 12:36:38 61° ESE 12:44:17 10° NE
Cosmos 2292 Rocket 4.3 12:42:38 52° NNW 12:42:38 52° NNW 12:47:27 10° N
Cosmos 1624 Rocket 3.8 12:55:24 28° SSW 12:58:05 69° WNW 13:03:15 10° NNE
USA 234 4.0 12:55:25 10° ESE 13:01:36 46° NE 13:06:32 16° NNW
Cosmos 2251 Rocket 3.4 12:59:20 31° NNW 13:01:57 72° WSW 13:07:15 10° S
SL-16 R/B 2.1 13:01:00 10° SSW 13:06:41 79° WNW 13:12:23 10° NNE
SL-16 R/B 4.5 13:02:18 10° SW 13:02:40 11° SW 13:02:40 11° SW
Cosmos 2061 Rocket 3.9 13:03:53 10° N 13:10:03 72° W 13:16:13 10° S
Cosmos 1725 Rocket 4.4 13:11:09 10° NNW 13:16:51 37° W 13:22:31 10° SSW
Cosmos 2233 Rocket 4.0 13:12:40 10° NNW 13:18:46 54° W 13:24:48 10° SSW
Cosmos 1447 Rocket 4.4 13:12:54 10° SSW 13:19:05 68° W 13:25:23 10° N
CZ-2C R/B 4.2 13:15:20 10° NNW 13:16:47 17° NNW 13:16:47 17° NNW
Aureole 3 Rocket 4.3 13:16:01 10° N 13:21:40 79° E 13:29:32 10° S
SJ-11-01 4.3 13:17:31 10° N 13:22:06 55° WNW 13:26:40 10° SSW
Cosmos 1331 Rocket 4.2 13:22:12 10° S 13:27:26 75° ESE 13:32:40 10° NNE
SKYMED 2 3.5 13:29:11 10° S 13:33:31 83° W 13:37:53 10° NNW
SJ 16-02 1.4 13:31:19 17° NNW 13:34:23 51° WSW 13:38:31 10° S
COSMO-SKYMED 1 2.7 13:30:31 10° SSE 13:34:35 69° ENE 13:38:42 10° N
Aureole 3 4.5 13:31:43 10° SSW 13:37:27 43° W 13:42:22 10° N
Cosmos 676 Rocket 4.0 13:37:07 10° NNW 13:42:16 60° WSW 13:47:19 10° S
Meteor 1-11 4.5 13:37:28 10° S 13:43:18 80° E 13:49:10 10° NNE
BREEZE-M DEB (TANK) 4.1 13:44:17 16° NNW 13:44:17 16° NNW 13:45:52 10° NNE
Cosmos 1025 Rocket 3.4 13:41:06 10° S 13:45:24 69° E 13:49:45 10° NNE
Cosmos 2237 Rocket 4.1 13:48:41 11° NW 13:48:41 11° NW 13:49:28 10° NW
Cosmos 2278 Rocket 4.0 13:49:12 11° WSW 13:49:12 11° WSW 13:50:00 10° WSW
Lacrosse 5 rocket 3.7 13:48:10 10° NNE 13:48:33 10° NNE 13:48:56 10° NE
SWARM A 4.2 13:46:42 10° SSW 13:49:58 59° W 13:53:14 10° N
Cosmos 1484 Rocket 2.5 13:47:56 10° NNE 13:51:28 83° ESE 13:54:57 10° S
Cosmos 1674 Rocket 3.5 13:47:13 10° SSW 13:51:36 69° W 13:56:01 10° N
Cosmos 1400 Rocket 2.5 13:50:08 10° N 13:53:49 86° W 13:57:27 10° S
Cosmos 2297 3.8 13:50:18 10° NNW 13:55:58 83° ENE 14:01:35 10° SSE
Helios 1A Rocket 2.7 13:52:57 10° S 13:56:11 43° W 13:59:25 10° NNW
Cosmos 1943 3.2 13:51:34 10° SSW 13:57:10 86° WNW 14:02:49 10° NNE
Cosmos 1869 4.2 13:55:54 13° NW 13:58:06 22° W 14:00:50 10° SW
Cosmos 1812 2.9 13:57:38 11° NW 13:59:58 26° W 14:02:27 10° SSW
Cosmos 2369 Rocket 2.2 13:55:01 10° NNW 14:00:44 87° WSW 14:06:27 10° SSE
Lacrosse 4 Rocket 4.0 13:59:48 10° NNE 14:01:41 13° NE 14:03:33 10° E
IRS-1D 4.2 13:58:26 10° N 14:02:37 28° WNW 14:06:48 10° SW
Cosmos 1072 Rocket 4.4 13:57:13 10° N 14:03:21 78° W 14:09:32 10° S
Cosmos 2221 Rocket 3.6 13:59:16 10° S 14:03:47 81° W 14:08:20 10° N
USA 229 DEB 4.0 14:01:18 10° WSW 14:06:41 36° NW 14:12:39 10° NNE
USA 229 4.0 14:01:30 10° WSW 14:06:53 37° NW 14:12:52 10° NNE
Cosmos 371 Rocket 4.2 14:03:37 10° NW 14:07:45 29° W 14:11:52 10° SSW
BREEZE-M DEB (TANK) 2.6 14:07:28 12° W 14:09:40 38° NNW 14:13:44 10° ENE
USA 267 4.4 14:04:58 10° NNE 14:10:02 25° NNW 14:15:06 10° WNW
Cosmos 968 Rocket 3.5 14:08:16 10° NNW 14:13:28 66° WSW 14:18:39 10° S
Cosmos 2151 Rocket 3.8 14:10:42 10° NNW 14:15:03 52° W 14:19:21 10° S
Cosmos 1741 Rocket 4.0 14:13:01 10° NNW 14:18:21 83° WSW 14:23:38 10° SSE
Sich 1 Rocket 3.6 14:18:22 10° NNW 14:22:52 69° W 14:27:17 10° S
Cosmos 1302 Rocket 3.9 14:20:44 10° SSW 14:25:53 76° WNW 14:31:04 10° NNE
ATLAS 3B R/B 3.6 14:21:11 10° WSW 14:27:52 33° NW 14:34:49 10° NNE
Centaur D AC-28 4.2 14:17:11 10° W 14:29:57 30° SW 14:34:15 10° SSE
